| time (UTC) | temp C | wind direction | speed KPH | gust KPH | rain 1hr cm | rain 24hr cm | rain mn cm | humidity % | barometer mb |
| 20260507230544 | 27 | 118 | 9.7 | 22.5 | 0.00 | 0.00 | 0.00 | 100 | 1014.7 |
| 20260507230043 | 27 | 102 | 9.7 | 19.3 | 0.00 | 0.00 | 0.00 | 100 | 1014.8 |
| 20260507225542 | 27 | 145 | 8.0 | 22.5 | 0.00 | 0.00 | 0.00 | 100 | 1014.7 |
| 20260507225045 | 27 | 159 | 14.5 | 27.4 | 0.00 | 0.00 | 0.00 | 100 | 1014.7 |
| 20260507224553 | 27 | 157 | 16.1 | 27.4 | 0.00 | 0.00 | 0.00 | 100 | 1014.6 |
| 20260507224043 | 27 | 184 | 8.0 | 24.1 | 0.00 | 0.00 | 0.00 | 100 | 1014.7 |
| 20260507223546 | 27 | 126 | 9.7 | 20.9 | 0.00 | 0.00 | 0.00 | 100 | 1014.6 |
| 20260507223042 | 27 | 105 | 11.3 | 19.3 | 0.00 | 0.00 | 0.00 | 100 | 1014.6 |
| 20260507222542 | 27 | 148 | 9.7 | 25.7 | 0.00 | 0.00 | 0.00 | 100 | 1014.5 |
| 20260507222040 | 27 | 136 | 11.3 | 25.7 | 0.00 | 0.00 | 0.00 | 100 | 1014.6 |
| 20260507221542 | 27 | 163 | 14.5 | 24.1 | 0.00 | 0.00 | 0.00 | 100 | 1014.5 |
| 20260507221042 | 27 | 171 | 9.7 | 25.7 | 0.00 | 0.00 | 0.00 | 100 | 1014.5 |
| 20260507220539 | 27 | 134 | 11.3 | 25.7 | 0.00 | 0.00 | 0.00 | 100 | 1014.7 |
| 20260507220039 | 28 | 113 | 8.0 | 19.3 | 0.00 | 0.00 | 0.00 | 100 | 1014.6 |
| 20260507215541 | 28 | 150 | 11.3 | 20.9 | 0.00 | 0.00 | 0.00 | 100 | 1014.8 |
| 20260507215039 | 28 | 141 | 9.7 | 20.9 | 0.00 | 0.00 | 0.00 | 100 | 1014.7 |
| 20260507214540 | 28 | 109 | 6.4 | 20.9 | 0.00 | 0.00 | 0.00 | 100 | 1014.6 |
| 20260507214038 | 28 | 151 | 8.0 | 22.5 | 0.00 | 0.00 | 0.00 | 100 | 1014.7 |
| 20260507213539 | 27 | 137 | 12.9 | 22.5 | 0.00 | 0.00 | 0.00 | 100 | 1014.6 |
| 20260507213041 | 28 | 152 | 12.9 | 19.3 | 0.00 | 0.00 | 0.00 | 100 | 1014.6 |
| 20260507212541 | 28 | 164 | 9.7 | 24.1 | 0.00 | 0.00 | 0.00 | 100 | 1014.6 |
| 20260507212036 | 28 | 128 | 8.0 | 24.1 | 0.00 | 0.00 | 0.00 | 100 | 1014.6 |
| 20260507211537 | 28 | 136 | 8.0 | 22.5 | 0.00 | 0.00 | 0.00 | 100 | 1014.8 |
| 20260507211036 | 28 | 137 | 6.4 | 19.3 | 0.00 | 0.00 | 0.00 | 100 | 1014.8 |
| 20260507210535 | 28 | 121 | 3.2 | 19.3 | 0.00 | 0.00 | 0.00 | 100 | 1014.9 |
| 20260507210043 | 28 | 123 | 8.0 | 19.3 | 0.00 | 0.00 | 0.00 | 100 | 1014.8 |
| 20260507205534 | 28 | 137 | 6.4 | 19.3 | 0.00 | 0.00 | 0.00 | 100 | 1015.0 |
| 20260507205035 | 28 | 158 | 8.0 | 22.5 | 0.00 | 0.00 | 0.00 | 100 | 1015.0 |
| 20260507204533 | 28 | 114 | 8.0 | 22.5 | 0.00 | 0.00 | 0.00 | 100 | 1015.0 |
| 20260507204035 | 28 | 88 | 8.0 | 22.5 | 0.00 | 0.00 | 0.00 | 100 | 1015.0 |
| 20260507203532 | 28 | 147 | 9.7 | 20.9 | 0.00 | 0.00 | 0.00 | 100 | 1015.1 |
| 20260507203036 | 28 | 124 | 8.0 | 19.3 | 0.00 | 0.00 | 0.00 | 100 | 1015.1 |
| 20260507202531 | 28 | 110 | 8.0 | 19.3 | 0.00 | 0.00 | 0.00 | 100 | 1015.2 |
| 20260507202034 | 28 | 112 | 6.4 | 19.3 | 0.00 | 0.00 | 0.00 | 100 | 1015.3 |
| 20260507201531 | 28 | 121 | 9.7 | 19.3 | 0.00 | 0.00 | 0.00 | 100 | 1015.1 |
| 20260507201034 | 28 | 99 | 6.4 | 20.9 | 0.00 | 0.00 | 0.00 | 100 | 1015.1 |
| 20260507200532 | 28 | 146 | 11.3 | 20.9 | 0.00 | 0.00 | 0.00 | 100 | 1015.1 |
| 20260507200030 | 28 | 116 | 9.7 | 22.5 | 0.00 | 0.00 | 0.00 | 100 | 1015.1 |
| 20260507195529 | 28 | 130 | 9.7 | 20.9 | 0.00 | 0.00 | 0.00 | 100 | 1015.3 |
| 20260507195029 | 28 | 161 | 11.3 | 19.3 | 0.00 | 0.00 | 0.00 | 100 | 1015.3 |
| 20260507194550 | 28 | 129 | 11.3 | 19.3 | 0.00 | 0.00 | 0.00 | 100 | 1015.4 |
| 20260507194028 | 29 | 109 | 4.8 | 16.1 | 0.00 | 0.00 | 0.00 | 100 | 1015.5 |
| 20260507193527 | 28 | 140 | 4.8 | 16.1 | 0.00 | 0.00 | 0.00 | 100 | 1015.6 |
| 20260507193029 | 28 | 85 | 3.2 | 14.5 | 0.00 | 0.00 | 0.00 | 100 | 1015.8 |
| 20260507192528 | 29 | 127 | 4.8 | 20.9 | 0.00 | 0.00 | 0.00 | 100 | 1015.8 |
| 20260507192028 | 28 | 106 | 6.4 | 22.5 | 0.00 | 0.00 | 0.00 | 100 | 1015.6 |
| 20260507191533 | 28 | 66 | 6.4 | 22.5 | 0.00 | 0.00 | 0.00 | 100 | 1015.8 |
| 20260507191024 | 28 | 107 | 4.8 | 16.1 | 0.00 | 0.00 | 0.00 | 100 | 1015.9 |
| 20260507190524 | 28 | 152 | 8.0 | 16.1 | 0.00 | 0.00 | 0.00 | 100 | 1016.0 |
| 20260507190024 | 30 | 127 | 1.6 | 12.9 | 0.00 | 0.00 | 0.00 | 100 | 1016.0 |
| 20260507185524 | 30 | 157 | 3.2 | 9.7 | 0.00 | 0.00 | 0.00 | 100 | 1016.1 |
| 20260507185023 | 31 | 73 | 1.6 | 17.7 | 0.00 | 0.00 | 0.00 | 100 | 1016.1 |
| 20260507184528 | 30 | 123 | 3.2 | 17.7 | 0.00 | 0.00 | 0.00 | 100 | 1016.2 |
| 20260507184021 | 30 | 128 | 4.8 | 19.3 | 0.00 | 0.00 | 0.00 | 100 | 1016.3 |
| 20260507183521 | 30 | 167 | 6.4 | 19.3 | 0.00 | 0.00 | 0.00 | 100 | 1016.4 |
| 20260507183033 | 31 | 146 | 8.0 | 17.7 | 0.00 | 0.00 | 0.00 | 100 | 1016.4 |
| 20260507182520 | 30 | 152 | 6.4 | 19.3 | 0.00 | 0.00 | 0.00 | 100 | 1016.5 |
| 20260507182019 | 30 | 141 | 8.0 | 19.3 | 0.00 | 0.00 | 0.00 | 100 | 1016.6 |
| 20260507181520 | 30 | 132 | 4.8 | 14.5 | 0.00 | 0.00 | 0.00 | 100 | 1016.6 |
| 20260507181021 | 30 | 142 | 4.8 | 14.5 | 0.00 | 0.00 | 0.00 | 100 | 1016.8 |
| 20260507180520 | 29 | 123 | 4.8 | 16.1 | 0.00 | 0.00 | 0.00 | 100 | 1016.8 |
| 20260507180029 | 29 | 105 | 8.0 | 16.1 | 0.00 | 0.00 | 0.00 | 100 | 1016.7 |
| 20260507175522 | 29 | 148 | 6.4 | 14.5 | 0.00 | 0.00 | 0.00 | 100 | 1016.8 |
| 20260507175020 | 30 | 119 | 4.8 | 16.1 | 0.00 | 0.00 | 0.00 | 100 | 1016.8 |
| 20260507174518 | 30 | 140 | 8.0 | 16.1 | 0.00 | 0.00 | 0.00 | 100 | 1016.9 |
| 20260507174019 | 29 | 148 | 3.2 | 11.3 | 0.00 | 0.00 | 0.00 | 100 | 1016.8 |
| 20260507173519 | 30 | 76 | 3.2 | 12.9 | 0.00 | 0.00 | 0.00 | 100 | 1016.8 |
| 20260507173028 | 30 | 121 | 8.0 | 12.9 | 0.00 | 0.00 | 0.00 | 100 | 1016.8 |
| 20260507172516 | 31 | 157 | 1.6 | 9.7 | 0.00 | 0.00 | 0.00 | 100 | 1016.8 |
| 20260507172015 | 30 | 269 | 0.0 | 11.3 | 0.00 | 0.00 | 0.00 | 100 | 1016.8 |
| 20260507171531 | 30 | 186 | 1.6 | 16.1 | 0.00 | 0.00 | 0.00 | 100 | 1016.9 |
| 20260507171016 | 30 | 166 | 6.4 | 22.5 | 0.00 | 0.00 | 0.00 | 100 | 1016.8 |
| 20260507170515 | 30 | 157 | 9.7 | 20.9 | 0.00 | 0.00 | 0.00 | 100 | 1016.9 |
| 20260507170014 | 31 | 140 | 6.4 | 12.9 | 0.00 | 0.00 | 0.00 | 100 | 1017.0 |
| 20260507165513 | 31 | 180 | 3.2 | 22.5 | 0.00 | 0.00 | 0.00 | 100 | 1017.0 |
| 20260507165012 | 31 | 175 | 8.0 | 22.5 | 0.00 | 0.00 | 0.00 | 100 | 1017.0 |
| 20260507164512 | 31 | 211 | 4.8 | 16.1 | 0.00 | 0.00 | 0.00 | 100 | 1017.1 |
| 20260507164011 | 31 | 246 | 8.0 | 17.7 | 0.00 | 0.00 | 0.00 | 100 | 1017.2 |
| 20260507163509 | 31 | 230 | 3.2 | 17.7 | 0.00 | 0.00 | 0.00 | 100 | 1017.2 |
| 20260507163010 | 31 | 205 | 8.0 | 19.3 | 0.00 | 0.00 | 0.00 | 100 | 1017.4 |
| 20260507162512 | 31 | 223 | 8.0 | 14.5 | 0.00 | 0.00 | 0.00 | 100 | 1017.5 |
| 20260507162005 | 30 | 147 | 8.0 | 14.5 | 0.00 | 0.00 | 0.00 | 100 | 1017.5 |
| 20260507161503 | 30 | 221 | 3.2 | 17.7 | 0.00 | 0.00 | 0.00 | 100 | 1017.5 |
| 20260507161002 | 30 | 261 | 1.6 | 17.7 | 0.00 | 0.00 | 0.00 | 100 | 1017.4 |
| 20260507160502 | 30 | 180 | 6.4 | 14.5 | 0.00 | 0.00 | 0.00 | 100 | 1017.5 |
| 20260507155558 | 30 | 238 | 3.2 | 14.5 | 0.00 | 0.00 | 0.00 | 100 | 1017.7 |
| 20260507155100 | 30 | 232 | 3.2 | 9.7 | 0.00 | 0.00 | 0.00 | 100 | 1017.7 |
| 20260507154557 | 30 | 175 | 6.4 | 11.3 | 0.00 | 0.00 | 0.00 | 100 | 1017.7 |
| 20260507154055 | 29 | 207 | 0.0 | 12.9 | 0.00 | 0.00 | 0.00 | 100 | 1017.7 |
| 20260507153557 | 29 | 202 | 4.8 | 12.9 | 0.00 | 0.00 | 0.00 | 100 | 1017.9 |
| 20260507153059 | 29 | 172 | 6.4 | 16.1 | 0.00 | 0.00 | 0.00 | 100 | 1018.0 |
| 20260507152554 | 29 | 174 | 6.4 | 16.1 | 0.00 | 0.00 | 0.00 | 100 | 1017.9 |
| 20260507152053 | 28 | 229 | 0.0 | 16.1 | 0.00 | 0.00 | 0.00 | 100 | 1018.0 |
| 20260507151559 | 28 | 238 | 4.8 | 16.1 | 0.00 | 0.00 | 0.00 | 100 | 1018.1 |
| 20260507151054 | 28 | 249 | 3.2 | 14.5 | 0.00 | 0.00 | 0.00 | 100 | 1018.2 |
| 20260507150552 | 28 | 178 | 4.8 | 17.7 | 0.00 | 0.00 | 0.00 | 100 | 1018.1 |
| 20260507150058 | 28 | 214 | 4.8 | 12.9 | 0.00 | 0.00 | 0.00 | 100 | 1018.1 |
| 20260507145551 | 28 | 225 | 3.2 | 8.0 | 0.00 | 0.00 | 0.00 | 100 | 1018.2 |
| 20260507145049 | 28 | 250 | 1.6 | 16.1 | 0.00 | 0.00 | 0.00 | 100 | 1018.2 |
| 20260507144553 | 28 | 233 | 4.8 | 16.1 | 0.00 | 0.00 | 0.00 | 100 | 1018.2 |
| 20260507144050 | 27 | 189 | 3.2 | 12.9 | 0.00 | 0.00 | 0.00 | 100 | 1018.1 |
| 20260507143547 | 27 | 246 | 4.8 | 14.5 | 0.00 | 0.00 | 0.00 | 100 | 1018.2 |
| 20260507143049 | 27 | 200 | 6.4 | 19.3 | 0.00 | 0.00 | 0.00 | 100 | 1018.3 |
| 20260507142547 | 27 | 160 | 0.0 | 19.3 | 0.00 | 0.00 | 0.00 | 100 | 1018.2 |
| 20260507142045 | 27 | 217 | 6.4 | 14.5 | 0.00 | 0.00 | 0.00 | 100 | 1018.2 |
| 20260507141559 | 27 | 237 | 6.4 | 17.7 | 0.00 | 0.00 | 0.00 | 100 | 1018.1 |
| 20260507141048 | 27 | 238 | 4.8 | 11.3 | 0.00 | 0.00 | 0.00 | 100 | 1018.3 |
| 20260507140545 | 27 | 196 | 3.2 | 14.5 | 0.00 | 0.00 | 0.00 | 100 | 1018.3 |
| 20260507140044 | 27 | 232 | 4.8 | 14.5 | 0.00 | 0.00 | 0.00 | 100 | 1018.3 |
| 20260507135544 | 26 | 261 | 3.2 | 16.1 | 0.00 | 0.00 | 0.00 | 100 | 1018.3 |
| 20260507135044 | 26 | 190 | 8.0 | 16.1 | 0.00 | 0.00 | 0.00 | 100 | 1018.3 |
| 20260507134544 | 26 | 231 | 4.8 | 12.9 | 0.00 | 0.00 | 0.00 | 100 | 1018.4 |
| 20260507134041 | 26 | 223 | 4.8 | 11.3 | 0.00 | 0.00 | 0.00 | 100 | 1018.4 |
| 20260507133541 | 26 | 219 | 1.6 | 11.3 | 0.00 | 0.00 | 0.00 | 100 | 1018.3 |
| 20260507133039 | 26 | 230 | 4.8 | 11.3 | 0.00 | 0.00 | 0.00 | 100 | 1018.2 |
| 20260507132539 | 26 | 255 | 3.2 | 14.5 | 0.00 | 0.00 | 0.00 | 100 | 1018.3 |
| 20260507132038 | 26 | 169 | 3.2 | 14.5 | 0.00 | 0.00 | 0.00 | 100 | 1018.3 |
| 20260507131539 | 25 | 216 | 3.2 | 12.9 | 0.00 | 0.00 | 0.00 | 100 | 1018.4 |
| 20260507131037 | 25 | 222 | 1.6 | 12.9 | 0.00 | 0.00 | 0.00 | 100 | 1018.3 |
| 20260507130537 | 25 | 236 | 1.6 | 9.7 | 0.00 | 0.00 | 0.00 | 100 | 1018.2 |
| 20260507130035 | 25 | 198 | 1.6 | 9.7 | 0.00 | 0.00 | 0.00 | 100 | 1018.2 |
| 20260507125537 | 25 | 208 | 1.6 | 8.0 | 0.00 | 0.00 | 0.00 | 100 | 1018.2 |
| 20260507125034 | 25 | 198 | 4.8 | 11.3 | 0.00 | 0.00 | 0.00 | 100 | 1018.2 |
| 20260507124535 | 24 | 237 | 3.2 | 11.3 | 0.00 | 0.00 | 0.00 | 100 | 1018.3 |
| 20260507124037 | 24 | 221 | 0.0 | 6.4 | 0.00 | 0.00 | 0.00 | 100 | 1018.3 |
| 20260507123534 | 24 | 238 | 1.6 | 6.4 | 0.00 | 0.00 | 0.00 | 100 | 1018.2 |
| 20260507123040 | 23 | 248 | 1.6 | 4.8 | 0.00 | 0.00 | 0.00 | 100 | 1018.2 |
| 20260507122534 | 23 | 231 | 0.0 | 4.8 | 0.00 | 0.00 | 0.00 | 100 | 1018.2 |
| 20260507122032 | 23 | 237 | 1.6 | 9.7 | 0.00 | 0.00 | 0.00 | 100 | 1018.3 |
| 20260507121532 | 23 | 178 | 0.0 | 8.0 | 0.00 | 0.00 | 0.00 | 100 | 1018.3 |
| 20260507121032 | 23 | 176 | 3.2 | 8.0 | 0.00 | 0.00 | 0.00 | 100 | 1018.3 |
| 20260507120532 | 22 | 236 | 0.0 | 4.8 | 0.00 | 0.00 | 0.00 | 100 | 1018.3 |
| 20260507120041 | 22 | 237 | 0.0 | 4.8 | 0.00 | 0.00 | 0.00 | 100 | 1018.4 |
| 20260507115532 | 22 | 234 | 1.6 | 4.8 | 0.00 | 0.00 | 0.00 | 100 | 1018.2 |
| 20260507115031 | 22 | 235 | 0.0 | 4.8 | 0.00 | 0.00 | 0.00 | 100 | 1018.2 |
| 20260507114531 | 21 | 237 | 0.0 | 4.8 | 0.00 | 0.00 | 0.00 | 100 | 1018.2 |
| 20260507114030 | 21 | 240 | 0.0 | 4.8 | 0.00 | 0.00 | 0.00 | 100 | 1018.1 |
| 20260507112026 | 21 | 242 | 0.0 | 4.8 | 0.00 | 0.00 | 0.00 | 100 | 1017.9 |
| 20260507111526 | 21 | 242 | 0.0 | 4.8 | 0.00 | 0.00 | 0.00 | 100 | 1018.1 |
| 20260507111026 | 21 | 242 | 0.0 | 6.4 | 0.00 | 0.00 | 0.00 | 100 | 1018.0 |
| 20260507110526 | 20 | 242 | 1.6 | 8.0 | 0.00 | 0.00 | 0.00 | 100 | 1017.9 |
| 20260507110027 | 20 | 254 | 1.6 | 8.0 | 0.00 | 0.00 | 0.00 | 100 | 1017.9 |
| 20260507105523 | 20 | 254 | 3.2 | 6.4 | 0.00 | 0.00 | 0.00 | 100 | 1018.0 |
| 20260507105024 | 20 | 232 | 1.6 | 6.4 | 0.00 | 0.00 | 0.00 | 100 | 1017.8 |
| 20260507104524 | 20 | 241 | 0.0 | 0.0 | 0.00 | 0.00 | 0.00 | 100 | 1017.6 |
| 20260507104025 | 20 | 241 | 0.0 | 0.0 | 0.00 | 0.00 | 0.00 | 100 | 1017.5 |
| 20260507103523 | 20 | 241 | 0.0 | 0.0 | 0.00 | 0.00 | 0.00 | 100 | 1017.4 |
| 20260507103023 | 20 | 247 | 0.0 | 0.0 | 0.00 | 0.00 | 0.00 | 100 | 1017.5 |
| 20260507102523 | 20 | 248 | 0.0 | 0.0 | 0.00 | 0.00 | 0.00 | 100 | 1017.3 |
| 20260507102023 | 20 | 248 | 0.0 | 0.0 | 0.00 | 0.00 | 0.00 | 100 | 1017.2 |
| 20260507101523 | 21 | 248 | 0.0 | 0.0 | 0.00 | 0.00 | 0.00 | 100 | 1017.1 |
| 20260507101022 | 20 | 248 | 0.0 | 0.0 | 0.00 | 0.00 | 0.00 | 100 | 1017.1 |
| 20260507100522 | 20 | 248 | 0.0 | 0.0 | 0.00 | 0.00 | 0.00 | 100 | 1016.9 |
| 20260507100033 | 21 | 248 | 0.0 | 0.0 | 0.00 | 0.00 | 0.00 | 100 | 1017.0 |
| 20260507095522 | 21 | 248 | 0.0 | 0.0 | 0.00 | 0.00 | 0.00 | 100 | 1017.1 |
| 20260507095022 | 21 | 248 | 0.0 | 0.0 | 0.00 | 0.00 | 0.00 | 100 | 1017.1 |
| 20260507094524 | 21 | 248 | 0.0 | 0.0 | 0.00 | 0.00 | 0.00 | 100 | 1017.1 |
| 20260507094022 | 21 | 248 | 0.0 | 0.0 | 0.00 | 0.00 | 0.00 | 100 | 1017.0 |
| 20260507093522 | 21 | 248 | 0.0 | 0.0 | 0.00 | 0.00 | 0.00 | 100 | 1016.9 |
| 20260507093019 | 21 | 248 | 0.0 | 0.0 | 0.00 | 0.00 | 0.00 | 100 | 1016.9 |
| 20260507092524 | 21 | 248 | 0.0 | 0.0 | 0.00 | 0.00 | 0.00 | 100 | 1016.8 |
| 20260507092021 | 21 | 248 | 0.0 | 0.0 | 0.00 | 0.00 | 0.00 | 100 | 1016.8 |
| 20260507091522 | 21 | 248 | 0.0 | 0.0 | 0.00 | 0.00 | 0.00 | 100 | 1016.8 |
| 20260507091021 | 21 | 248 | 0.0 | 1.6 | 0.00 | 0.00 | 0.00 | 100 | 1016.7 |
| 20260507090519 | 21 | 248 | 0.0 | 0.0 | 0.00 | 0.00 | 0.00 | 100 | 1016.6 |
| 20260507090018 | 21 | 248 | 0.0 | 0.0 | 0.00 | 0.00 | 0.00 | 100 | 1016.5 |
| 20260507085521 | 21 | 248 | 0.0 | 0.0 | 0.00 | 0.00 | 0.00 | 100 | 1016.5 |
| 20260507085019 | 21 | 248 | 0.0 | 0.0 | 0.00 | 0.00 | 0.00 | 100 | 1016.5 |
| 20260507084519 | 21 | 248 | 0.0 | 1.6 | 0.00 | 0.00 | 0.00 | 100 | 1016.4 |
| 20260507084017 | 21 | 248 | 0.0 | 1.6 | 0.00 | 0.00 | 0.00 | 100 | 1016.4 |
| 20260507083518 | 21 | 248 | 0.0 | 1.6 | 0.00 | 0.00 | 0.00 | 100 | 1016.4 |
| 20260507083018 | 21 | 248 | 0.0 | 1.6 | 0.00 | 0.00 | 0.00 | 100 | 1016.5 |
| 20260507082518 | 21 | 248 | 0.0 | 1.6 | 0.00 | 0.00 | 0.00 | 100 | 1016.4 |
| 20260507082017 | 21 | 248 | 0.0 | 0.0 | 0.00 | 0.00 | 0.00 | 100 | 1016.4 |
| 20260507081517 | 21 | 248 | 0.0 | 0.0 | 0.00 | 0.00 | 0.00 | 100 | 1016.4 |
| 20260507081018 | 21 | 248 | 0.0 | 0.0 | 0.00 | 0.00 | 0.00 | 100 | 1016.5 |
| 20260507080518 | 21 | 248 | 0.0 | 0.0 | 0.00 | 0.00 | 0.00 | 100 | 1016.5 |
| 20260507080017 | 21 | 248 | 0.0 | 3.2 | 0.00 | 0.00 | 0.00 | 100 | 1016.4 |
| 20260507075516 | 21 | 248 | 0.0 | 0.0 | 0.00 | 0.00 | 0.00 | 100 | 1016.4 |
| 20260507075016 | 21 | 248 | 0.0 | 1.6 | 0.00 | 0.00 | 0.00 | 100 | 1016.5 |
| 20260507074526 | 21 | 248 | 0.0 | 1.6 | 0.00 | 0.00 | 0.00 | 100 | 1016.5 |
| 20260507074014 | 21 | 248 | 0.0 | 0.0 | 0.00 | 0.00 | 0.00 | 100 | 1016.6 |
| 20260507073515 | 21 | 248 | 0.0 | 1.6 | 0.00 | 0.00 | 0.00 | 100 | 1016.5 |
| 20260507073014 | 21 | 248 | 0.0 | 3.2 | 0.00 | 0.00 | 0.00 | 100 | 1016.7 |
| 20260507072513 | 21 | 248 | 0.0 | 0.0 | 0.00 | 0.00 | 0.00 | 100 | 1016.7 |
| 20260507072011 | 21 | 248 | 0.0 | 0.0 | 0.00 | 0.00 | 0.00 | 100 | 1016.7 |
| 20260507071512 | 21 | 248 | 0.0 | 0.0 | 0.00 | 0.00 | 0.00 | 100 | 1016.8 |
| 20260507071011 | 21 | 248 | 0.0 | 1.6 | 0.00 | 0.00 | 0.00 | 100 | 1016.8 |
| 20260507070511 | 21 | 248 | 0.0 | 3.2 | 0.00 | 0.00 | 0.00 | 100 | 1016.8 |
| 20260507070012 | 21 | 248 | 0.0 | 3.2 | 0.00 | 0.00 | 0.00 | 100 | 1017.0 |
| 20260507065513 | 22 | 248 | 0.0 | 3.2 | 0.00 | 0.00 | 0.00 | 100 | 1017.1 |
| 20260507065107 | 22 | 248 | 0.0 | 3.2 | 0.00 | 0.00 | 0.00 | 100 | 1017.3 |
| 20260507064506 | 22 | 248 | 0.0 | 1.6 | 0.00 | 0.00 | 0.00 | 100 | 1017.4 |
| 20260507064009 | 22 | 248 | 0.0 | 1.6 | 0.00 | 0.00 | 0.00 | 100 | 1017.4 |
| 20260507063505 | 22 | 248 | 0.0 | 3.2 | 0.00 | 0.00 | 0.00 | 100 | 1017.4 |
| 20260507063004 | 22 | 248 | 0.0 | 6.4 | 0.00 | 0.00 | 0.00 | 100 | 1017.4 |
| 20260507062502 | 22 | 248 | 0.0 | 6.4 | 0.00 | 0.00 | 0.00 | 100 | 1017.4 |
| 20260507062002 | 22 | 231 | 1.6 | 8.0 | 0.00 | 0.00 | 0.00 | 100 | 1017.4 |
| 20260507061601 | 23 | 242 | 1.6 | 6.4 | 0.00 | 0.00 | 0.00 | 100 | 1017.3 |
| 20260507061102 | 23 | 242 | 0.0 | 6.4 | 0.00 | 0.00 | 0.00 | 100 | 1017.3 |
| 20260507060558 | 23 | 224 | 0.0 | 8.0 | 0.00 | 0.00 | 0.00 | 100 | 1017.4 |
| 20260507060057 | 23 | 223 | 0.0 | 4.8 | 0.00 | 0.00 | 0.00 | 100 | 1017.5 |
| 20260507055555 | 24 | 205 | 0.0 | 4.8 | 0.00 | 0.00 | 0.00 | 100 | 1017.6 |
| 20260507055053 | 24 | 205 | 1.6 | 11.3 | 0.00 | 0.00 | 0.00 | 100 | 1017.6 |
| 20260507054556 | 24 | 161 | 1.6 | 11.3 | 0.00 | 0.00 | 0.00 | 100 | 1017.6 |
| 20260507054052 | 25 | 182 | 1.6 | 8.0 | 0.00 | 0.00 | 0.00 | 100 | 1017.7 |
| 20260507053552 | 25 | 192 | 3.2 | 12.9 | 0.00 | 0.00 | 0.00 | 100 | 1017.7 |
| 20260507053050 | 25 | 162 | 1.6 | 12.9 | 0.00 | 0.00 | 0.00 | 100 | 1017.9 |
| 20260507052553 | 25 | 174 | 1.6 | 16.1 | 0.00 | 0.00 | 0.00 | 100 | 1017.9 |
| 20260507052051 | 25 | 169 | 8.0 | 16.1 | 0.00 | 0.00 | 0.00 | 100 | 1017.8 |
| 20260507051551 | 25 | 140 | 6.4 | 16.1 | 0.00 | 0.00 | 0.00 | 100 | 1017.8 |
| 20260507051050 | 25 | 142 | 6.4 | 17.7 | 0.00 | 0.00 | 0.00 | 100 | 1017.8 |
| 20260507050551 | 25 | 159 | 6.4 | 17.7 | 0.00 | 0.00 | 0.00 | 100 | 1017.8 |
| 20260507050055 | 25 | 160 | 6.4 | 17.7 | 0.00 | 0.00 | 0.00 | 100 | 1017.8 |
| 20260507045549 | 25 | 135 | 9.7 | 17.7 | 0.00 | 0.00 | 0.00 | 100 | 1017.8 |
| 20260507045050 | 25 | 135 | 4.8 | 20.9 | 0.00 | 0.00 | 0.00 | 100 | 1017.9 |
| 20260507044551 | 25 | 138 | 11.3 | 20.9 | 0.00 | 0.00 | 0.00 | 100 | 1017.7 |
| 20260507044048 | 25 | 146 | 4.8 | 19.3 | 0.00 | 0.00 | 0.00 | 100 | 1017.8 |
| 20260507043547 | 25 | 134 | 6.4 | 12.9 | 0.00 | 0.00 | 0.00 | 100 | 1017.8 |
| 20260507043049 | 25 | 133 | 4.8 | 14.5 | 0.00 | 0.00 | 0.00 | 100 | 1017.8 |
| 20260507042547 | 25 | 101 | 4.8 | 14.5 | 0.00 | 0.00 | 0.00 | 100 | 1017.9 |
| 20260507042050 | 25 | 150 | 4.8 | 14.5 | 0.00 | 0.00 | 0.00 | 100 | 1017.9 |
| 20260507041548 | 25 | 139 | 3.2 | 16.1 | 0.00 | 0.00 | 0.00 | 100 | 1017.9 |
| 20260507041049 | 25 | 104 | 4.8 | 16.1 | 0.00 | 0.00 | 0.00 | 100 | 1017.9 |
| 20260507040547 | 25 | 161 | 6.4 | 14.5 | 0.00 | 0.00 | 0.00 | 100 | 1018.1 |
| 20260507040045 | 25 | 158 | 3.2 | 17.7 | 0.00 | 0.00 | 0.00 | 100 | 1018.0 |
| 20260507035544 | 25 | 145 | 8.0 | 14.5 | 0.00 | 0.00 | 0.00 | 100 | 1017.9 |
| 20260507035043 | 25 | 150 | 4.8 | 12.9 | 0.00 | 0.00 | 0.00 | 100 | 1017.8 |
| 20260507034557 | 25 | 134 | 4.8 | 12.9 | 0.00 | 0.00 | 0.00 | 100 | 1017.8 |
| 20260507034042 | 25 | 127 | 6.4 | 16.1 | 0.00 | 0.00 | 0.00 | 100 | 1017.8 |
| 20260507033542 | 25 | 155 | 4.8 | 16.1 | 0.00 | 0.00 | 0.00 | 100 | 1017.7 |
| 20260507033100 | 25 | 136 | 4.8 | 16.1 | 0.00 | 0.00 | 0.00 | 100 | 1017.8 |
| 20260507032544 | 25 | 117 | 6.4 | 17.7 | 0.00 | 0.00 | 0.00 | 100 | 1017.7 |
| 20260507032043 | 25 | 115 | 8.0 | 17.7 | 0.00 | 0.00 | 0.00 | 100 | 1017.7 |
| 20260507031541 | 25 | 146 | 4.8 | 16.1 | 0.00 | 0.00 | 0.00 | 100 | 1017.9 |
| 20260507031144 | 25 | 140 | 4.8 | 16.1 | 0.00 | 0.00 | 0.00 | 100 | 1018.0 |
| 20260507030545 | 25 | 126 | 8.0 | 16.1 | 0.00 | 0.00 | 0.00 | 100 | 1017.9 |
| 20260507030041 | 25 | 140 | 6.4 | 16.1 | 0.00 | 0.00 | 0.00 | 100 | 1017.9 |
| 20260507025540 | 25 | 112 | 6.4 | 16.1 | 0.00 | 0.00 | 0.00 | 100 | 1017.8 |
| 20260507025041 | 25 | 144 | 4.8 | 14.5 | 0.00 | 0.00 | 0.00 | 100 | 1017.8 |
| 20260507024551 | 25 | 118 | 4.8 | 19.3 | 0.00 | 0.00 | 0.00 | 100 | 1018.0 |
| 20260507024043 | 25 | 114 | 6.4 | 19.3 | 0.00 | 0.00 | 0.00 | 100 | 1018.0 |
| 20260507023545 | 25 | 120 | 4.8 | 14.5 | 0.00 | 0.00 | 0.00 | 100 | 1018.1 |
| 20260507023039 | 25 | 113 | 6.4 | 14.5 | 0.00 | 0.00 | 0.00 | 100 | 1017.9 |
| 20260507022539 | 25 | 96 | 6.4 | 14.5 | 0.00 | 0.00 | 0.00 | 100 | 1018.1 |
| 20260507022039 | 25 | 136 | 6.4 | 14.5 | 0.00 | 0.00 | 0.00 | 100 | 1018.2 |
| 20260507021539 | 25 | 142 | 4.8 | 14.5 | 0.00 | 0.00 | 0.00 | 100 | 1018.2 |
| 20260507021041 | 25 | 115 | 6.4 | 16.1 | 0.00 | 0.00 | 0.00 | 100 | 1018.2 |
| 20260507020538 | 25 | 139 | 6.4 | 16.1 | 0.00 | 0.00 | 0.00 | 100 | 1018.1 |
| 20260507020039 | 25 | 144 | 6.4 | 14.5 | 0.00 | 0.00 | 0.00 | 100 | 1018.1 |
| 20260507015537 | 25 | 130 | 6.4 | 16.1 | 0.00 | 0.00 | 0.00 | 100 | 1018.0 |
| 20260507015039 | 25 | 145 | 8.0 | 16.1 | 0.00 | 0.00 | 0.00 | 100 | 1018.1 |
| 20260507014538 | 25 | 135 | 4.8 | 14.5 | 0.00 | 0.00 | 0.00 | 100 | 1018.0 |
| 20260507014038 | 25 | 137 | 6.4 | 14.5 | 0.00 | 0.00 | 0.00 | 100 | 1018.0 |
| 20260507013640 | 25 | 141 | 6.4 | 14.5 | 0.00 | 0.00 | 0.00 | 100 | 1018.0 |
| 20260507013039 | 25 | 161 | 6.4 | 14.5 | 0.00 | 0.00 | 0.00 | 100 | 1018.0 |
| 20260507012537 | 25 | 93 | 4.8 | 16.1 | 0.00 | 0.00 | 0.00 | 100 | 1018.1 |
| 20260507012037 | 25 | 121 | 4.8 | 16.1 | 0.00 | 0.00 | 0.00 | 100 | 1018.0 |
| 20260507011539 | 25 | 110 | 3.2 | 12.9 | 0.00 | 0.00 | 0.00 | 100 | 1017.9 |
| 20260507011035 | 25 | 153 | 8.0 | 12.9 | 0.00 | 0.00 | 0.00 | 100 | 1017.9 |
| 20260507010535 | 25 | 142 | 4.8 | 12.9 | 0.00 | 0.00 | 0.00 | 100 | 1017.9 |
| 20260507010039 | 25 | 137 | 4.8 | 14.5 | 0.00 | 0.00 | 0.00 | 100 | 1017.9 |
| 20260507005536 | 25 | 142 | 6.4 | 14.5 | 0.00 | 0.00 | 0.00 | 100 | 1017.9 |
| 20260507005035 | 25 | 134 | 6.4 | 12.9 | 0.00 | 0.00 | 0.00 | 100 | 1017.8 |
| 20260507004535 | 25 | 130 | 6.4 | 14.5 | 0.00 | 0.00 | 0.00 | 100 | 1017.8 |
| 20260507004035 | 26 | 148 | 6.4 | 14.5 | 0.00 | 0.00 | 0.00 | 100 | 1017.8 |
| 20260507003535 | 26 | 120 | 6.4 | 12.9 | 0.00 | 0.00 | 0.00 | 100 | 1017.7 |
| 20260507003035 | 26 | 159 | 4.8 | 14.5 | 0.00 | 0.00 | 0.00 | 100 | 1017.7 |
| 20260507002534 | 26 | 130 | 4.8 | 14.5 | 0.00 | 0.00 | 0.00 | 100 | 1017.6 |
| 20260507002034 | 26 | 136 | 6.4 | 14.5 | 0.00 | 0.00 | 0.00 | 100 | 1017.6 |
| 20260507001549 | 26 | 167 | 6.4 | 14.5 | 0.00 | 0.00 | 0.00 | 100 | 1017.7 |
| 20260507001038 | 26 | 140 | 6.4 | 17.7 | 0.00 | 0.00 | 0.00 | 100 | 1017.7 |
| 20260507000533 | 26 | 159 | 8.0 | 17.7 | 0.00 | 0.00 | 0.00 | 100 | 1017.6 |
| 20260507000033 | 26 | 124 | 4.8 | 14.5 | 0.00 | 0.00 | 0.00 | 100 | 1017.5 |
| 20260506235534 | 26 | 135 | 6.4 | 16.1 | 0.00 | 0.00 | 0.00 | 100 | 1017.6 |
| 20260506235036 | 26 | 150 | 8.0 | 20.9 | 0.00 | 0.00 | 0.00 | 100 | 1017.6 |
| 20260506234546 | 26 | 141 | 8.0 | 16.1 | 0.00 | 0.00 | 0.00 | 100 | 1017.5 |
| 20260506234033 | 26 | 128 | 6.4 | 16.1 | 0.00 | 0.00 | 0.00 | 100 | 1017.7 |
| 20260506233533 | 26 | 109 | 6.4 | 16.1 | 0.00 | 0.00 | 0.00 | 100 | 1017.6 |
| 20260506233032 | 26 | 156 | 8.0 | 16.1 | 0.00 | 0.00 | 0.00 | 100 | 1017.7 |
| 20260506232533 | 26 | 139 | 6.4 | 16.1 | 0.00 | 0.00 | 0.00 | 100 | 1017.6 |
| 20260506232048 | 26 | 159 | 8.0 | 16.1 | 0.00 | 0.00 | 0.00 | 100 | 1017.7 |
| 20260506231534 | 26 | 134 | 9.7 | 17.7 | 0.00 | 0.00 | 0.00 | 100 | 1017.7 |
| 20260506231029 | 27 | 116 | 6.4 | 17.7 | 0.00 | 0.00 | 0.00 | 100 | 1017.8 |